Regional Weather Roundup
Issued by NWS

Home | Current Version | Previous Version | Graphics & Text | Print | Product List | Glossary On
Versions: 1 2 3 4 5 6 7 8 9 10 11 12 13 14 15 16 17 18 19 20 21 22 23 24 25 26 27 28 29 30 31 32 33 34 35 36 37 38 39 40 41 42 43 44 45 46 47 48 49 50
000
ASUS43 KIND 230009
RWRIN

WEATHER ROUNDUP FOR INDIANA
NATIONAL WEATHER SERVICE INDIANAPOLIS IN
800 PM EDT TUE APR 22 2014

NOTE: "FAIR" INDICATES FEW OR NO CLOUDS BELOW 12,000 FEET WITH NO
SIGNIFICANT WEATHER AND/OR OBSTRUCTIONS TO VISIBILITY.

* - STATION DOES NOT REPORT WEATHER SUCH AS PRECIPITATION OR FOG.

+ - STATION NOT QUALITY CONTROLLED BY THE NATIONAL WEATHER SERVICE.
    USE DATA WITH CAUTION...ESPECIALLY DEWPOINT AND RELATIVE
    HUMIDITY OBSERVATIONS.

INZ001>003-010>013-019-020-230100-
NORTHWEST INDIANA

CITY           SKY/WX    TMP DP  RH WIND       PRES   REMARKS
GARY /AIRPORT/ CLEAR     45  32  61 E13       30.02R
LA PORTE +     CLEAR     44  29  55 N13       30.00R
6HR MIN TEMP:  44; 6HR MAX TEMP:  49;

MICHIGAN CITY+ CLEAR     43  28  56 NE9       30.01R
MONTICELLO +   CLEAR     54  35  48 N14       29.95R
RENSSELAER +   CLEAR     52  32  46 N13       29.97R
VALPARAISO     CLEAR     45  29  53 N8        30.00R
6HR MIN TEMP:  45; 6HR MAX TEMP:  52;


$$

LMZ046-743>745-230100-
SOUTHERN LAKE MICHIGAN

STATION/POSITION TIME  TEMP WIND        PRES
                       AIR  DIR/SP/G
                 (UTC) (F)  (DEG/KT/KT) (MB)
MICHIGAN CITY    0000   41   20/ 11/ 14   N/A

$$

INZ004-005-014>016-021>024-230100-
NORTH CENTRAL INDIANA

CITY           SKY/WX    TMP DP  RH WIND       PRES   REMARKS
ELKHART        CLEAR     46  28  49 NW8G16    29.97R
GOSHEN         CLEAR     48  31  51 N12       29.96R
6HR MIN TEMP:  48; 6HR MAX TEMP:  52;

LOGANSPORT +   CLEAR     50  32  50 N10       29.96S
PERU/GRISSOM   CLEAR     52  33  49 N12       29.95S
6HR MIN TEMP:  52; 6HR MAX TEMP:  55;

ROCHESTER +    CLEAR     50  32  50 N12G20    29.98R
SOUTH BEND     CLEAR     46  29  51 N12       29.99R
6HR MIN TEMP:  46; 6HR MAX TEMP:  50;

WARSAW +       CLEAR     46  32  57 NW13G18   29.96S

$$

INZ006>009-017-018-025>027-230100-
NORTHEAST INDIANA

CITY           SKY/WX    TMP DP  RH WIND       PRES   REMARKS
ANGOLA *+      CLEAR     46  30  53 N12       29.93R
AUBURN +       CLEAR     46  28  49 NW16G26   29.94R
FORT WAYNE     PTCLDY    49  30  48 NW15G26   29.95R
6HR MIN TEMP:  49; 6HR MAX TEMP:  56;


$$

INZ028-029-035-036-043>045-051>053-230100-
WEST CENTRAL INDIANA

CITY           SKY/WX    TMP DP  RH WIND       PRES   REMARKS
GREENCASTLE +  CLEAR     57  32  38 NW8       29.94R
LAFAYETTE      CLEAR     56  33  42 NW9       29.94S
6HR MIN TEMP:  55; 6HR MAX TEMP:  59;

TERRE HAUTE    CLEAR     61  36  39 N9G20     29.94R
6HR MIN TEMP:  61; 6HR MAX TEMP:  65;


$$

INZ030>032-037>040-046>048-054>057-064-065-230100-
CENTRAL INDIANA

CITY           SKY/WX    TMP DP  RH WIND       PRES   REMARKS
CP ATTERBURY + PTCLDY    55  34  44 N10       29.93R
INDIANAPOLIS   PTCLDY    53  32  44 N12       29.93R
6HR MIN TEMP:  53; 6HR MAX TEMP:  60;

-EAGLE CREEK   CLEAR     53  31  42 N12       29.93S
6HR MIN TEMP:  53; 6HR MAX TEMP:  59;

KOKOMO *+      CLEAR     52  30  43 N13       29.96R
MARION +       CLEAR     50  27  41 N9        29.96S
MT COMFORT *+  CLEAR     52  32  46 N13       29.95R
SHELBYVILLE    PTCLDY    56  32  40 N13G20    29.93R
6HR MIN TEMP:  56; 6HR MAX TEMP:  64;

ZIONSVILLE +   CLEAR     53  30  41 N10       29.95S
6HR MIN TEMP:  53; 6HR MAX TEMP:  58;


$$

INZ033-034-041-042-049-050-058-059-230100-
EAST CENTRAL INDIANA

CITY           SKY/WX    TMP DP  RH WIND       PRES   REMARKS
MUNCIE         CLEAR     50  30  46 N17G26    29.95R
6HR MIN TEMP:  50; 6HR MAX TEMP:  58;


$$

INZ060-061-067>069-081>083-085>088-230100-
SOUTHWEST INDIANA

CITY           SKY/WX    TMP DP  RH WIND       PRES   REMARKS
EVANSVILLE     CLEAR     67  35  30 NW6       29.93S
6HR MIN TEMP:  67; 6HR MAX TEMP:  70;

HUNTINGBURG *+ CLEAR     63  37  39 N10       29.92S
6HR MIN TEMP:  63; 6HR MAX TEMP:  66;

WASHINGTON +   CLEAR     63  36  36 NW12G18   29.92R
6HR MIN TEMP:  63; 6HR MAX TEMP:  68;


$$

INZ062-063-066-070>080-084-089>092-230100-
SOUTH CENTRAL AND SOUTHEAST INDIANA

CITY           SKY/WX    TMP DP  RH WIND       PRES   REMARKS
BLOOMINGTON    CLEAR     61  29  29 NW9G18    29.92R
6HR MIN TEMP:  61; 6HR MAX TEMP:  67;

SEYMOUR +      PTCLDY    57  19  23 N12       29.90R

$$




USA.gov is the U.S. government's official web portal to all federal, state and local government web resources and services.